SLE2246 EPKK-HECA

Flight info

Callsign SLE2246
Flight time 2h 56m
Altitude 39000
Route BABKO DCT DEMOP DCT PARAK DCT DONIV DCT NISVA DCT NIKTI N127 LOPTI UN127 IMR UG80 BANRO UN128 RDS UN129 KUMBI L612 BLT
Aircraft A333/H-SDE3GHIJ2J3J5M1RVWXY/LB2D1

Departure

Time 2026-05-05 03:59
Airport Kraków John Paul II International Airport (EPKK)

Arrival

Time 2026-05-05 06:56
Airport Cairo International Airport (HECA)
Time Latitude Longitude Altitude Speed Heading
2026-05-05 03:12 50.07299 19.79884 802 ft 0 kts 167°
2026-05-05 03:37 50.07315 19.79879 803 ft 3 kts 167°
2026-05-05 03:38 50.07339 19.79871 803 ft 6 kts 167°
2026-05-05 03:38 50.07361 19.79865 803 ft 8 kts 199°
2026-05-05 03:38 50.07377 19.79879 803 ft 8 kts 249°
2026-05-05 03:38 50.07384 19.79918 803 ft 7 kts 258°
2026-05-05 03:39 50.07384 19.79923 803 ft 9 kts 257°
2026-05-05 03:48 50.07384 19.79921 803 ft 0 kts 257°
2026-05-05 03:48 50.07384 19.79920 803 ft 0 kts 257°
2026-05-05 03:48 50.07380 19.79896 803 ft 7 kts 257°
2026-05-05 03:48 50.07396 19.79813 803 ft 9 kts 313°
2026-05-05 03:49 50.07458 19.79763 803 ft 9 kts 342°
2026-05-05 03:49 50.07466 19.79760 803 ft 0 kts 344°
2026-05-05 03:50 50.07487 19.79752 803 ft 3 kts 346°
2026-05-05 03:50 50.07496 19.79749 803 ft 0 kts 348°
2026-05-05 03:53 50.07514 19.79743 803 ft 5 kts 348°
2026-05-05 03:53 50.07544 19.79734 803 ft 8 kts 348°
2026-05-05 03:53 50.07608 19.79713 803 ft 9 kts 348°
2026-05-05 03:53 50.07668 19.79726 802 ft 9 kts 30°
2026-05-05 03:54 50.07699 19.79796 803 ft 8 kts 66°
2026-05-05 03:54 50.07716 19.79889 803 ft 10 kts 75°
2026-05-05 03:54 50.07729 19.79990 803 ft 11 kts 78°
2026-05-05 03:54 50.07747 19.80124 803 ft 14 kts 77°
2026-05-05 03:55 50.07776 19.80284 803 ft 16 kts 60°
2026-05-05 03:55 50.07849 19.80326 803 ft 0 kts 357°
2026-05-05 03:56 50.07863 19.80325 803 ft 4 kts 355°
2026-05-05 03:56 50.07904 19.80317 803 ft 8 kts 352°
2026-05-05 03:56 50.07972 19.80301 802 ft 12 kts 351°
2026-05-05 03:56 50.08006 19.80269 802 ft 9 kts 297°
2026-05-05 03:57 50.08008 19.80219 803 ft 0 kts 264°
2026-05-05 03:58 50.08008 19.80218 803 ft 4 kts 263°
2026-05-05 03:58 50.07959 19.79843 802 ft 67 kts 257°
2026-05-05 03:58 50.07823 19.78847 805 ft 121 kts 257°
2026-05-05 03:58 50.07610 19.77331 803 ft 163 kts 258°
2026-05-05 03:59 50.07357 19.75481 1014 ft 179 kts 258°
2026-05-05 03:59 50.07106 19.73697 1808 ft 164 kts 256°
2026-05-05 03:59 50.06875 19.71817 2112 ft 188 kts 258°
2026-05-05 03:59 50.06672 19.69759 2617 ft 194 kts 258°
2026-05-05 04:00 50.06481 19.67679 3284 ft 192 kts 258°
2026-05-05 04:00 50.06290 19.65642 4201 ft 187 kts 259°
2026-05-05 04:00 50.06098 19.63693 5077 ft 183 kts 259°
2026-05-05 04:00 50.05879 19.61738 5839 ft 183 kts 254°
2026-05-05 04:01 50.05196 19.60022 6249 ft 199 kts 214°
2026-05-05 04:01 50.03808 19.59560 6576 ft 221 kts 170°
2026-05-05 04:01 50.02433 19.60843 6815 ft 246 kts 134°
2026-05-05 04:01 50.01298 19.62944 7046 ft 264 kts 135°
2026-05-05 04:02 49.99848 19.64794 7424 ft 269 kts 150°
2026-05-05 04:02 49.98245 19.66137 8109 ft 265 kts 158°
2026-05-05 04:02 49.96497 19.67086 8620 ft 266 kts 169°
2026-05-05 04:02 49.94674 19.67583 9194 ft 265 kts 174°
2026-05-05 04:03 49.92842 19.68070 9731 ft 268 kts 170°
2026-05-05 04:03 49.91043 19.68738 10209 ft 270 kts 168°
2026-05-05 04:03 49.89205 19.69389 10659 ft 270 kts 173°
2026-05-05 04:03 49.87354 19.69236 11076 ft 267 kts 199°
2026-05-05 04:04 49.85676 19.68016 11496 ft 268 kts 211°
2026-05-05 04:04 49.84014 19.66515 11634 ft 287 kts 210°
2026-05-05 04:04 49.82196 19.64990 11748 ft 307 kts 209°
2026-05-05 04:04 49.80259 19.63351 11828 ft 328 kts 210°
2026-05-05 04:05 49.78242 19.61559 12307 ft 334 kts 211°
2026-05-05 04:05 49.76225 19.59813 13119 ft 333 kts 210°
2026-05-05 04:05 49.74201 19.58114 13699 ft 337 kts 210°
2026-05-05 04:05 49.72135 19.56342 14317 ft 339 kts 210°
2026-05-05 04:06 49.70071 19.54548 14872 ft 342 kts 210°
2026-05-05 04:06 49.67980 19.52762 15445 ft 345 kts 210°
2026-05-05 04:06 49.65865 19.50967 16008 ft 348 kts 210°
2026-05-05 04:06 49.63734 19.49147 16531 ft 351 kts 209°
2026-05-05 04:07 49.61404 19.47936 16992 ft 358 kts 188°
2026-05-05 04:07 49.58940 19.47946 17542 ft 364 kts 174°
2026-05-05 04:07 49.56458 19.48918 17997 ft 371 kts 166°
2026-05-05 04:07 49.53958 19.49999 18511 ft 374 kts 168°
2026-05-05 04:08 49.51425 19.50999 18984 ft 377 kts 168°
2026-05-05 04:08 49.48878 19.52074 19441 ft 381 kts 166°
2026-05-05 04:08 49.46324 19.53207 19906 ft 384 kts 166°
2026-05-05 04:08 49.43726 19.54285 20361 ft 387 kts 167°
2026-05-05 04:09 49.41103 19.55332 20836 ft 391 kts 167°
2026-05-05 04:09 49.38469 19.56447 21301 ft 395 kts 166°
2026-05-05 04:09 49.35842 19.57578 21753 ft 398 kts 166°
2026-05-05 04:09 49.33157 19.58679 22213 ft 402 kts 167°
2026-05-05 04:10 49.30439 19.59784 22659 ft 405 kts 166°
2026-05-05 04:10 49.27703 19.60941 23122 ft 409 kts 166°
2026-05-05 04:10 49.24946 19.62101 23556 ft 413 kts 166°
2026-05-05 04:10 49.22162 19.63237 23921 ft 416 kts 166°
2026-05-05 04:11 49.19356 19.64390 24335 ft 418 kts 166°
2026-05-05 04:11 49.16536 19.65571 24697 ft 421 kts 166°
2026-05-05 04:11 49.13699 19.66748 25072 ft 424 kts 166°
2026-05-05 04:11 49.10837 19.67919 25429 ft 427 kts 166°
2026-05-05 04:12 49.08000 19.69088 25813 ft 429 kts 166°
2026-05-05 04:12 49.05103 19.70285 26179 ft 431 kts 166°
2026-05-05 04:12 49.02191 19.71483 26540 ft 434 kts 166°
2026-05-05 04:12 48.99271 19.72679 26918 ft 436 kts 166°
2026-05-05 04:13 48.96323 19.73888 27285 ft 439 kts 166°
2026-05-05 04:13 48.93359 19.75104 27639 ft 441 kts 166°
2026-05-05 04:13 48.90419 19.76308 28013 ft 443 kts 166°
2026-05-05 04:13 48.87424 19.77530 28351 ft 446 kts 166°
2026-05-05 04:14 48.84416 19.78758 28660 ft 449 kts 165°
2026-05-05 04:14 48.81387 19.79994 29023 ft 451 kts 165°
2026-05-05 04:14 48.78344 19.81232 29375 ft 454 kts 165°
2026-05-05 04:14 48.75286 19.82475 29705 ft 456 kts 165°
2026-05-05 04:15 48.72206 19.83727 30050 ft 459 kts 165°
2026-05-05 04:15 48.69115 19.84981 30333 ft 461 kts 165°
2026-05-05 04:15 48.66000 19.86242 30622 ft 464 kts 165°
2026-05-05 04:15 48.62876 19.87504 30895 ft 466 kts 165°
2026-05-05 04:16 48.59733 19.88776 31176 ft 468 kts 165°
2026-05-05 04:16 48.56578 19.90050 31445 ft 470 kts 166°
2026-05-05 04:16 48.53445 19.91310 31720 ft 472 kts 166°
2026-05-05 04:16 48.50260 19.92595 31978 ft 475 kts 166°
2026-05-05 04:17 48.47057 19.93882 32226 ft 477 kts 166°
2026-05-05 04:17 48.43842 19.95168 32480 ft 479 kts 166°
2026-05-05 04:17 48.40620 19.96464 32757 ft 480 kts 166°
2026-05-05 04:17 48.37386 19.97762 33103 ft 480 kts 166°
2026-05-05 04:18 48.34156 19.99047 33444 ft 479 kts 166°
2026-05-05 04:18 48.30934 20.00334 33774 ft 479 kts 166°
2026-05-05 04:18 48.27713 20.01624 34083 ft 479 kts 166°
2026-05-05 04:18 48.24533 20.02888 34374 ft 478 kts 166°
2026-05-05 04:19 48.21318 20.04163 34668 ft 478 kts 166°
2026-05-05 04:19 48.18102 20.05405 34925 ft 476 kts 169°
2026-05-05 04:19 48.14816 20.05839 35189 ft 473 kts 181°
2026-05-05 04:19 48.11514 20.05779 35351 ft 475 kts 181°
2026-05-05 04:20 48.08208 20.05804 35580 ft 475 kts 179°
2026-05-05 04:20 48.04906 20.05974 35861 ft 474 kts 179°
2026-05-05 04:20 48.01613 20.06061 36100 ft 474 kts 181°
2026-05-05 04:20 47.98315 20.06027 36348 ft 473 kts 181°
2026-05-05 04:21 47.95019 20.06071 36578 ft 473 kts 179°
2026-05-05 04:21 47.91723 20.06219 36823 ft 473 kts 179°
2026-05-05 04:21 47.88429 20.06295 37070 ft 472 kts 181°
2026-05-05 04:21 47.85141 20.06283 37291 ft 472 kts 181°
2026-05-05 04:22 47.81896 20.06335 37515 ft 472 kts 179°
2026-05-05 04:22 47.78611 20.06463 37723 ft 472 kts 179°
2026-05-05 04:22 47.75322 20.06531 37939 ft 471 kts 181°
2026-05-05 04:22 47.72038 20.06533 38149 ft 471 kts 180°
2026-05-05 04:23 47.68750 20.06595 38356 ft 470 kts 179°
2026-05-05 04:23 47.65520 20.06710 38540 ft 470 kts 180°
2026-05-05 04:23 47.62246 20.06768 38725 ft 470 kts 180°
2026-05-05 04:23 47.58979 20.06780 38842 ft 470 kts 180°
2026-05-05 04:24 47.55706 20.06850 38959 ft 471 kts 179°
2026-05-05 04:24 47.52415 20.06955 38980 ft 473 kts 180°
2026-05-05 04:25 47.42456 20.07107 39022 ft 479 kts 179°
2026-05-05 04:25 47.35806 20.07246 39030 ft 476 kts 180°
2026-05-05 04:26 47.29177 20.07362 39035 ft 477 kts 179°
2026-05-05 04:26 47.22537 20.07485 39029 ft 476 kts 180°
2026-05-05 04:27 47.15944 20.07613 39027 ft 477 kts 179°
2026-05-05 04:27 47.09298 20.07724 39025 ft 477 kts 180°
2026-05-05 04:28 47.02716 20.07862 39027 ft 477 kts 180°
2026-05-05 04:28 46.96055 20.07964 39022 ft 477 kts 180°
2026-05-05 04:29 46.89400 20.08111 39022 ft 479 kts 180°
2026-05-05 04:29 46.82738 20.08204 39027 ft 478 kts 180°
2026-05-05 04:30 46.76076 20.08357 39031 ft 479 kts 180°
2026-05-05 04:30 46.69397 20.08446 39027 ft 479 kts 180°
2026-05-05 04:31 46.62719 20.08600 39028 ft 480 kts 180°
2026-05-05 04:31 46.56082 20.08688 39028 ft 480 kts 180°
2026-05-05 04:32 46.49396 20.08840 39031 ft 480 kts 180°
2026-05-05 04:32 46.42695 20.08932 39038 ft 481 kts 179°
2026-05-05 04:33 46.35974 20.09078 39038 ft 481 kts 180°
2026-05-05 04:33 46.29313 20.09176 39034 ft 482 kts 179°
2026-05-05 04:34 46.22589 20.09312 39033 ft 482 kts 180°
2026-05-05 04:34 46.15934 20.10068 39070 ft 479 kts 158°
2026-05-05 04:35 46.10008 20.14402 39036 ft 484 kts 150°
2026-05-05 04:35 46.04078 20.18988 39028 ft 483 kts 151°
2026-05-05 04:36 45.98177 20.23641 39030 ft 484 kts 150°
2026-05-05 04:36 45.92227 20.28189 39049 ft 484 kts 151°
2026-05-05 04:37 45.86301 20.32834 39046 ft 485 kts 150°
2026-05-05 04:37 45.80332 20.37380 39043 ft 486 kts 150°
2026-05-05 04:38 45.74431 20.41978 39044 ft 487 kts 151°
2026-05-05 04:38 45.68441 20.46524 39055 ft 487 kts 150°
2026-05-05 04:39 45.62475 20.51144 39055 ft 487 kts 151°
2026-05-05 04:39 45.56475 20.55682 39057 ft 487 kts 150°
2026-05-05 04:40 45.50530 20.60256 39052 ft 488 kts 151°
2026-05-05 04:40 45.45506 20.64035 39061 ft 488 kts 151°
2026-05-05 04:41 45.39552 20.68594 39057 ft 488 kts 151°
2026-05-05 04:41 45.33538 20.73107 39064 ft 488 kts 150°
2026-05-05 04:42 45.27580 20.77643 39062 ft 488 kts 151°
2026-05-05 04:42 45.21558 20.82146 39062 ft 489 kts 150°
2026-05-05 04:43 45.15556 20.86687 39065 ft 489 kts 151°
2026-05-05 04:43 45.09526 20.91182 39068 ft 489 kts 150°
2026-05-05 04:44 45.03544 20.95678 39052 ft 489 kts 151°
2026-05-05 04:44 44.97508 21.00165 39051 ft 490 kts 150°
2026-05-05 04:45 44.91466 21.04673 39056 ft 491 kts 151°
2026-05-05 04:45 44.85417 21.09159 39085 ft 491 kts 150°
2026-05-05 04:46 44.79395 21.13621 39076 ft 492 kts 151°
2026-05-05 04:46 44.73418 21.18289 39089 ft 489 kts 143°
2026-05-05 04:47 44.67788 21.23764 39074 ft 491 kts 144°
2026-05-05 04:47 44.62079 21.29031 39083 ft 491 kts 143°
2026-05-05 04:48 44.56451 21.34474 39078 ft 492 kts 144°
2026-05-05 04:48 44.50763 21.39716 39088 ft 492 kts 143°
2026-05-05 04:49 44.45108 21.45138 39094 ft 492 kts 144°
2026-05-05 04:49 44.39377 21.50417 39101 ft 492 kts 143°
2026-05-05 04:50 44.33742 21.55773 39104 ft 493 kts 144°
2026-05-05 04:50 44.28009 21.61048 39100 ft 492 kts 143°
2026-05-05 04:51 44.22333 21.66401 39102 ft 493 kts 144°
2026-05-05 04:51 44.16605 21.71659 39111 ft 492 kts 143°
2026-05-05 04:52 44.10963 21.76943 39105 ft 491 kts 144°
2026-05-05 04:52 44.05248 21.82177 39106 ft 492 kts 143°
2026-05-05 04:53 43.99561 21.87466 39111 ft 491 kts 144°
2026-05-05 04:53 43.93874 21.92662 39110 ft 491 kts 144°
2026-05-05 04:54 43.88181 21.97919 39114 ft 491 kts 144°
2026-05-05 04:54 43.82461 22.03134 39116 ft 492 kts 144°
2026-05-05 04:55 43.76756 22.08364 39117 ft 492 kts 144°
2026-05-05 04:55 43.71038 22.13567 39115 ft 492 kts 144°
2026-05-05 04:56 43.65322 22.18768 39118 ft 492 kts 144°
2026-05-05 04:56 43.59635 22.23933 39127 ft 492 kts 144°
2026-05-05 04:57 43.53901 22.29113 39124 ft 492 kts 145°
2026-05-05 04:57 43.48171 22.34306 39122 ft 493 kts 144°
2026-05-05 04:58 43.42410 22.39476 39121 ft 494 kts 145°
2026-05-05 04:58 43.36694 22.44640 39132 ft 495 kts 144°
2026-05-05 04:59 43.30908 22.49804 39137 ft 496 kts 145°
2026-05-05 04:59 43.25113 22.55017 39140 ft 498 kts 145°
2026-05-05 05:00 43.19283 22.60195 39139 ft 499 kts 145°
2026-05-05 05:00 43.13464 22.65406 39149 ft 500 kts 145°
2026-05-05 05:01 43.07609 22.70585 39151 ft 502 kts 145°
2026-05-05 05:01 43.01795 22.75763 39152 ft 502 kts 145°
2026-05-05 05:02 42.95958 22.81027 39155 ft 500 kts 141°
2026-05-05 05:02 42.90237 22.86468 39153 ft 501 kts 144°
2026-05-05 05:03 42.84506 22.91877 39138 ft 499 kts 141°
2026-05-05 05:03 42.78815 22.97303 39148 ft 499 kts 144°
2026-05-05 05:04 42.73143 23.02630 39152 ft 498 kts 142°
2026-05-05 05:04 42.67460 23.08023 39141 ft 498 kts 144°
2026-05-05 05:05 42.61756 23.13360 39128 ft 498 kts 142°
2026-05-05 05:05 42.56063 23.18733 39121 ft 498 kts 144°
2026-05-05 05:06 42.50348 23.24060 39128 ft 498 kts 142°
2026-05-05 05:06 42.44641 23.29418 39131 ft 499 kts 144°
2026-05-05 05:07 42.38908 23.34743 39125 ft 499 kts 142°
2026-05-05 05:07 42.33215 23.40056 39131 ft 501 kts 144°
2026-05-05 05:08 42.27468 23.45378 39117 ft 499 kts 142°
2026-05-05 05:08 42.21728 23.50703 39114 ft 500 kts 144°
2026-05-05 05:09 42.16031 23.55965 39118 ft 499 kts 143°
2026-05-05 05:09 42.10290 23.61258 39106 ft 499 kts 144°
2026-05-05 05:10 42.04562 23.66533 39110 ft 499 kts 143°
2026-05-05 05:10 41.98820 23.71793 39107 ft 499 kts 144°
2026-05-05 05:11 41.93085 23.77062 39105 ft 498 kts 143°
2026-05-05 05:11 41.87336 23.82296 39098 ft 499 kts 144°
2026-05-05 05:12 41.81643 23.87511 39118 ft 499 kts 143°
2026-05-05 05:12 41.75885 23.92723 39116 ft 499 kts 144°
2026-05-05 05:13 41.70131 23.97977 39104 ft 498 kts 143°
2026-05-05 05:13 41.64369 24.03165 39103 ft 499 kts 144°
2026-05-05 05:14 41.58669 24.08350 39098 ft 499 kts 144°
2026-05-05 05:14 41.52894 24.13527 39086 ft 499 kts 144°
2026-05-05 05:15 41.47145 24.18732 39090 ft 499 kts 144°
2026-05-05 05:15 41.41386 24.23874 39090 ft 498 kts 144°
2026-05-05 05:16 41.35681 24.29014 39087 ft 498 kts 144°
2026-05-05 05:16 41.29914 24.34145 39078 ft 499 kts 144°
2026-05-05 05:17 41.24158 24.39304 39082 ft 498 kts 144°
2026-05-05 05:17 41.18422 24.44476 39067 ft 496 kts 141°
2026-05-05 05:18 41.12788 24.49777 39087 ft 498 kts 145°
2026-05-05 05:18 41.07116 24.55059 39065 ft 497 kts 141°
2026-05-05 05:19 41.01524 24.60345 39068 ft 498 kts 144°
2026-05-05 05:19 40.95848 24.65598 39082 ft 497 kts 142°
2026-05-05 05:20 40.90218 24.70902 39064 ft 497 kts 144°
2026-05-05 05:20 40.84550 24.76126 39079 ft 496 kts 142°
2026-05-05 05:21 40.78907 24.81414 39075 ft 497 kts 144°
2026-05-05 05:21 40.73234 24.86629 39079 ft 496 kts 142°
2026-05-05 05:22 40.67625 24.91854 39079 ft 497 kts 144°
2026-05-05 05:22 40.61950 24.97058 39075 ft 496 kts 143°
2026-05-05 05:23 40.56294 25.02294 39080 ft 497 kts 144°
2026-05-05 05:23 40.50614 25.07492 39072 ft 497 kts 143°
2026-05-05 05:24 40.44945 25.12706 39080 ft 497 kts 144°
2026-05-05 05:24 40.39296 25.17865 39080 ft 497 kts 143°
2026-05-05 05:25 40.33620 25.23054 39077 ft 497 kts 145°
2026-05-05 05:25 40.27931 25.28238 39072 ft 497 kts 143°
2026-05-05 05:26 40.22241 25.33408 39083 ft 497 kts 145°
2026-05-05 05:26 40.16587 25.38547 39081 ft 498 kts 144°
2026-05-05 05:27 40.10888 25.43697 38989 ft 496 kts 145°
2026-05-05 05:27 40.02364 25.51424 39083 ft 498 kts 145°
2026-05-05 05:28 39.96640 25.56541 39081 ft 498 kts 144°
2026-05-05 05:28 39.90985 25.61661 39085 ft 498 kts 145°
2026-05-05 05:29 39.85271 25.66756 39083 ft 497 kts 144°
2026-05-05 05:29 39.79576 25.71883 39088 ft 498 kts 145°
2026-05-05 05:30 39.74821 25.76102 39086 ft 498 kts 145°
2026-05-05 05:30 39.69106 25.81233 39091 ft 498 kts 145°
2026-05-05 05:31 39.63372 25.86309 39086 ft 498 kts 145°
2026-05-05 05:31 39.57697 25.91375 39090 ft 498 kts 146°
2026-05-05 05:32 39.51962 25.96440 39079 ft 498 kts 145°
2026-05-05 05:32 39.46248 26.01510 39085 ft 497 kts 146°
2026-05-05 05:33 39.40551 26.06531 39095 ft 497 kts 145°
2026-05-05 05:33 39.34829 26.11578 39088 ft 497 kts 146°
2026-05-05 05:34 39.29101 26.16616 39091 ft 497 kts 145°
2026-05-05 05:34 39.23372 26.21639 39081 ft 497 kts 146°
2026-05-05 05:35 39.17648 26.26662 39088 ft 497 kts 146°
2026-05-05 05:35 39.11953 26.31629 39080 ft 497 kts 146°
2026-05-05 05:36 39.06238 26.36627 39089 ft 497 kts 146°
2026-05-05 05:36 39.00504 26.41607 39081 ft 497 kts 146°
2026-05-05 05:37 38.94774 26.46598 39082 ft 497 kts 146°
2026-05-05 05:37 38.89062 26.51541 39080 ft 498 kts 146°
2026-05-05 05:38 38.83323 26.56520 39082 ft 498 kts 146°
2026-05-05 05:38 38.77563 26.61483 39077 ft 498 kts 146°
2026-05-05 05:39 38.71809 26.66456 39073 ft 498 kts 146°
2026-05-05 05:39 38.66081 26.71372 39059 ft 498 kts 146°
2026-05-05 05:40 38.60318 26.76333 39066 ft 498 kts 146°
2026-05-05 05:40 38.54587 26.81235 39069 ft 498 kts 146°
2026-05-05 05:41 38.48825 26.86170 39060 ft 499 kts 146°
2026-05-05 05:41 38.43056 26.91089 39057 ft 498 kts 146°
2026-05-05 05:42 38.37284 26.96012 39051 ft 498 kts 147°
2026-05-05 05:42 38.31523 27.00818 39039 ft 496 kts 153°
2026-05-05 05:43 38.25209 27.04322 39055 ft 496 kts 159°
2026-05-05 05:43 38.18910 27.07888 39058 ft 497 kts 156°
2026-05-05 05:44 38.12545 27.11351 39059 ft 496 kts 159°
2026-05-05 05:44 38.06220 27.14904 39079 ft 497 kts 156°
2026-05-05 05:45 37.99874 27.18361 39083 ft 497 kts 159°
2026-05-05 05:45 37.93533 27.21894 39086 ft 498 kts 156°
2026-05-05 05:46 37.87210 27.25337 39079 ft 498 kts 159°
2026-05-05 05:46 37.80835 27.28866 39076 ft 499 kts 157°
2026-05-05 05:47 37.74449 27.32336 39082 ft 499 kts 159°
2026-05-05 05:47 37.68075 27.35850 39065 ft 500 kts 157°
2026-05-05 05:48 37.61719 27.39292 39064 ft 499 kts 159°
2026-05-05 05:48 37.55327 27.42801 39063 ft 499 kts 158°
2026-05-05 05:49 37.48932 27.46251 39061 ft 499 kts 159°
2026-05-05 05:49 37.42553 27.49741 39058 ft 500 kts 158°
2026-05-05 05:50 37.36190 27.53161 39051 ft 500 kts 159°
2026-05-05 05:50 37.29798 27.56642 39055 ft 500 kts 158°
2026-05-05 05:51 37.23387 27.60078 39058 ft 501 kts 159°
2026-05-05 05:51 37.16976 27.63555 39052 ft 502 kts 158°
2026-05-05 05:52 37.10536 27.66996 39056 ft 503 kts 159°
2026-05-05 05:52 37.04124 27.70460 39061 ft 505 kts 159°
2026-05-05 05:53 36.97649 27.73907 39055 ft 506 kts 159°
2026-05-05 05:53 36.91174 27.77388 39048 ft 506 kts 159°
2026-05-05 05:54 36.84687 27.80832 39042 ft 506 kts 159°
2026-05-05 05:54 36.78203 27.84308 39038 ft 506 kts 159°
2026-05-05 05:55 36.71752 27.87716 39033 ft 506 kts 159°
2026-05-05 05:55 36.65272 27.91178 39027 ft 506 kts 159°
2026-05-05 05:56 36.58779 27.94596 39028 ft 506 kts 159°
2026-05-05 05:56 36.52306 27.98042 39030 ft 505 kts 159°
2026-05-05 05:57 36.45924 28.01609 39025 ft 505 kts 158°
2026-05-05 05:57 36.39471 28.05069 39029 ft 506 kts 159°
2026-05-05 05:58 36.33016 28.08523 39021 ft 501 kts 171°
2026-05-05 05:58 36.26174 28.10165 39017 ft 505 kts 171°
2026-05-05 05:59 36.19335 28.12148 39016 ft 504 kts 171°
2026-05-05 05:59 36.12495 28.13756 39022 ft 504 kts 172°
2026-05-05 06:00 36.05645 28.15712 39024 ft 505 kts 171°
2026-05-05 06:00 35.98741 28.17360 39023 ft 505 kts 172°
2026-05-05 06:01 35.91876 28.19286 39027 ft 505 kts 171°
2026-05-05 06:01 35.84988 28.20949 39026 ft 504 kts 172°
2026-05-05 06:02 35.78128 28.22844 39031 ft 505 kts 171°
2026-05-05 06:02 35.71282 28.24511 39041 ft 505 kts 172°
2026-05-05 06:03 35.64412 28.26384 39043 ft 506 kts 172°
2026-05-05 06:03 35.57509 28.28075 39021 ft 504 kts 172°
2026-05-05 06:04 35.50648 28.29925 39020 ft 505 kts 172°
2026-05-05 06:04 35.43770 28.31615 39028 ft 504 kts 173°
2026-05-05 06:05 35.36906 28.33451 39032 ft 504 kts 172°
2026-05-05 06:05 35.30052 28.35137 39032 ft 504 kts 173°
2026-05-05 06:06 35.23188 28.36959 39033 ft 504 kts 172°
2026-05-05 06:06 35.16314 28.38652 39037 ft 503 kts 173°
2026-05-05 06:07 35.09457 28.40459 39034 ft 504 kts 172°
2026-05-05 06:07 35.02619 28.42142 39035 ft 503 kts 173°
2026-05-05 06:08 34.95768 28.43937 39034 ft 503 kts 173°
2026-05-05 06:08 34.88908 28.45623 39034 ft 503 kts 173°
2026-05-05 06:09 34.82054 28.47410 39040 ft 503 kts 173°
2026-05-05 06:09 34.75228 28.49085 39041 ft 503 kts 173°
2026-05-05 06:10 34.68380 28.50861 39041 ft 503 kts 173°
2026-05-05 06:10 34.61519 28.52542 39049 ft 503 kts 173°
2026-05-05 06:11 34.54667 28.54310 39047 ft 503 kts 173°
2026-05-05 06:11 34.47811 28.55989 39055 ft 502 kts 173°
2026-05-05 06:12 34.41001 28.57734 39057 ft 502 kts 173°
2026-05-05 06:12 34.34147 28.59412 39056 ft 503 kts 173°
2026-05-05 06:13 34.27298 28.61158 39057 ft 503 kts 173°
2026-05-05 06:13 34.20437 28.62836 39053 ft 503 kts 173°
2026-05-05 06:14 34.13602 28.64567 39054 ft 503 kts 174°
2026-05-05 06:14 34.06737 28.66247 39055 ft 504 kts 173°
2026-05-05 06:15 33.99858 28.67977 39054 ft 503 kts 174°
2026-05-05 06:15 33.92973 28.69663 39057 ft 504 kts 173°
2026-05-05 06:16 33.86134 28.71369 39062 ft 504 kts 174°
2026-05-05 06:16 33.79247 28.73059 39059 ft 505 kts 173°
2026-05-05 06:17 33.72427 28.75106 39060 ft 512 kts 157°
2026-05-05 06:17 33.69361 28.77344 39118 ft 521 kts 143°
2026-05-05 06:17 33.66669 28.80293 39107 ft 526 kts 138°
2026-05-05 06:18 33.61345 28.86242 39064 ft 524 kts 140°
2026-05-05 06:18 33.56918 28.91234 39068 ft 525 kts 139°
2026-05-05 06:19 33.51568 28.97217 39071 ft 524 kts 140°
2026-05-05 06:19 33.46228 29.03174 39070 ft 524 kts 139°
2026-05-05 06:20 33.40888 29.09127 39072 ft 523 kts 141°
2026-05-05 06:20 33.35588 29.15019 39069 ft 523 kts 139°
2026-05-05 06:21 33.30250 29.20949 39066 ft 523 kts 141°
2026-05-05 06:21 33.24902 29.26876 39063 ft 524 kts 139°
2026-05-05 06:22 33.19553 29.32792 39070 ft 523 kts 141°
2026-05-05 06:22 33.14209 29.38698 39066 ft 524 kts 140°
2026-05-05 06:23 33.08863 29.44587 39067 ft 523 kts 141°
2026-05-05 06:23 33.03549 29.50443 39068 ft 523 kts 140°
2026-05-05 06:24 32.98195 29.56317 39064 ft 523 kts 141°
2026-05-05 06:24 32.92837 29.62207 39067 ft 523 kts 140°
2026-05-05 06:25 32.87520 29.68013 39072 ft 522 kts 141°
2026-05-05 06:25 32.82169 29.73879 39068 ft 523 kts 140°
2026-05-05 06:26 32.76804 29.79716 39063 ft 522 kts 141°
2026-05-05 06:26 32.71458 29.85560 39067 ft 522 kts 141°
2026-05-05 06:27 32.63447 29.94234 39072 ft 521 kts 141°
2026-05-05 06:28 32.58118 30.00060 39070 ft 520 kts 142°
2026-05-05 06:28 32.52753 30.05828 39073 ft 520 kts 141°
2026-05-05 06:29 32.47421 30.11632 39072 ft 519 kts 142°
2026-05-05 06:29 32.42069 30.17373 39070 ft 519 kts 141°
2026-05-05 06:30 32.36773 30.23111 39075 ft 518 kts 142°
2026-05-05 06:30 32.31413 30.28850 39066 ft 519 kts 142°
2026-05-05 06:31 32.26070 30.34610 38960 ft 521 kts 142°
2026-05-05 06:31 32.23356 30.37491 38354 ft 523 kts 142°
2026-05-05 06:31 32.20730 30.40316 37228 ft 511 kts 142°
2026-05-05 06:31 32.18168 30.43101 36537 ft 489 kts 142°
2026-05-05 06:32 32.15700 30.45734 35889 ft 467 kts 143°
2026-05-05 06:32 32.13317 30.48239 35263 ft 450 kts 143°
2026-05-05 06:32 32.11028 30.50692 34655 ft 441 kts 142°
2026-05-05 06:32 32.08771 30.53142 34062 ft 442 kts 142°
2026-05-05 06:33 32.06470 30.55576 33416 ft 445 kts 143°
2026-05-05 06:33 32.04147 30.58004 32749 ft 448 kts 142°
2026-05-05 06:33 32.01839 30.60493 32094 ft 450 kts 141°
2026-05-05 06:33 31.99558 30.62976 31469 ft 451 kts 142°
2026-05-05 06:34 31.97201 30.65446 30865 ft 453 kts 143°
2026-05-05 06:34 31.94829 30.67908 30261 ft 455 kts 142°
2026-05-05 06:34 31.92492 30.70436 29578 ft 456 kts 140°
2026-05-05 06:34 31.90170 30.72965 28872 ft 454 kts 141°
2026-05-05 06:35 31.87803 30.75424 28187 ft 453 kts 142°
2026-05-05 06:35 31.85436 30.77869 27546 ft 453 kts 141°
2026-05-05 06:35 31.83145 30.80351 26908 ft 453 kts 139°
2026-05-05 06:35 31.80831 30.82865 26276 ft 452 kts 141°
2026-05-05 06:36 31.78465 30.85307 25659 ft 452 kts 141°
2026-05-05 06:36 31.76104 30.87743 25055 ft 452 kts 139°
2026-05-05 06:36 31.73792 30.90248 24465 ft 452 kts 138°
2026-05-05 06:36 31.71477 30.92748 23889 ft 452 kts 140°
2026-05-05 06:37 31.69118 30.95172 23255 ft 451 kts 140°
2026-05-05 06:37 31.66754 30.97615 22583 ft 453 kts 139°
2026-05-05 06:37 31.64437 31.00120 21927 ft 453 kts 139°
2026-05-05 06:37 31.62116 31.02607 21202 ft 444 kts 140°
2026-05-05 06:38 31.59800 31.05002 19105 ft 451 kts 141°
2026-05-05 06:38 31.57476 31.07395 18113 ft 438 kts 140°
2026-05-05 06:38 31.55218 31.09799 17469 ft 445 kts 140°
2026-05-05 06:38 31.52682 31.11877 16739 ft 444 kts 160°
2026-05-05 06:39 31.49727 31.12877 16099 ft 443 kts 174°
2026-05-05 06:39 31.46656 31.13430 15346 ft 448 kts 174°
2026-05-05 06:39 31.43568 31.13998 14618 ft 450 kts 173°
2026-05-05 06:39 31.40465 31.14603 13905 ft 451 kts 173°
2026-05-05 06:40 31.37393 31.15164 13117 ft 453 kts 174°
2026-05-05 06:40 31.34259 31.15722 12319 ft 456 kts 173°
2026-05-05 06:40 31.31117 31.16325 11539 ft 460 kts 173°
2026-05-05 06:40 31.27960 31.16940 10838 ft 459 kts 173°
2026-05-05 06:41 31.24779 31.17521 10103 ft 461 kts 174°
2026-05-05 06:41 31.21592 31.18096 9306 ft 463 kts 173°
2026-05-05 06:41 31.18490 31.18686 8687 ft 455 kts 173°
2026-05-05 06:41 31.15403 31.19281 8488 ft 446 kts 173°
2026-05-05 06:42 31.12345 31.19840 8208 ft 443 kts 173°
2026-05-05 06:42 31.09298 31.20394 7953 ft 443 kts 173°
2026-05-05 06:42 31.06260 31.20966 7708 ft 442 kts 172°
2026-05-05 06:42 31.03224 31.21536 7450 ft 441 kts 172°
2026-05-05 06:43 31.00195 31.22102 7211 ft 439 kts 172°
2026-05-05 06:43 30.97175 31.22659 6976 ft 438 kts 172°
2026-05-05 06:43 30.94211 31.23205 6730 ft 436 kts 172°
2026-05-05 06:43 30.91212 31.23763 6459 ft 435 kts 172°
2026-05-05 06:44 30.88223 31.24323 6198 ft 434 kts 172°
2026-05-05 06:44 30.85243 31.24876 5933 ft 433 kts 172°
2026-05-05 06:44 30.82269 31.25423 5693 ft 432 kts 172°
2026-05-05 06:44 30.79299 31.25967 5431 ft 432 kts 172°
2026-05-05 06:45 30.76325 31.26516 5175 ft 432 kts 172°
2026-05-05 06:45 30.73352 31.27073 4943 ft 432 kts 172°
2026-05-05 06:45 30.70376 31.27623 4703 ft 432 kts 172°
2026-05-05 06:45 30.67445 31.28277 4398 ft 426 kts 163°
2026-05-05 06:46 30.64885 31.29706 4306 ft 387 kts 147°
2026-05-05 06:46 30.62832 31.31424 4384 ft 349 kts 143°
2026-05-05 06:46 30.61014 31.33066 4466 ft 312 kts 142°
2026-05-05 06:46 30.59405 31.34529 4463 ft 274 kts 142°
2026-05-05 06:47 30.57993 31.35833 4444 ft 249 kts 142°
2026-05-05 06:47 30.56654 31.37088 4462 ft 247 kts 142°
2026-05-05 06:47 30.55352 31.38316 4230 ft 231 kts 142°
2026-05-05 06:47 30.54088 31.39462 4408 ft 236 kts 144°
2026-05-05 06:48 30.52778 31.40579 4488 ft 235 kts 144°
2026-05-05 06:48 30.51466 31.41708 4495 ft 233 kts 144°
2026-05-05 06:48 30.50169 31.42815 4484 ft 234 kts 145°
2026-05-05 06:48 30.48837 31.43942 4189 ft 235 kts 145°
2026-05-05 06:49 30.47528 31.45044 3947 ft 234 kts 144°
2026-05-05 06:49 30.46215 31.46154 3696 ft 232 kts 144°
2026-05-05 06:49 30.44905 31.47255 3443 ft 232 kts 145°
2026-05-05 06:49 30.43602 31.48347 3196 ft 230 kts 145°
2026-05-05 06:50 30.42318 31.49410 2904 ft 221 kts 147°
2026-05-05 06:50 30.41020 31.50367 2676 ft 221 kts 153°
2026-05-05 06:50 30.39669 31.51195 2421 ft 217 kts 155°
2026-05-05 06:50 30.38326 31.51965 2103 ft 216 kts 156°
2026-05-05 06:51 30.37006 31.52726 1862 ft 211 kts 154°
2026-05-05 06:51 30.35710 31.53543 2049 ft 214 kts 153°
2026-05-05 06:51 30.34388 31.54350 2110 ft 216 kts 155°
2026-05-05 06:51 30.33039 31.55123 2111 ft 212 kts 155°
2026-05-05 06:52 30.31710 31.55902 2089 ft 215 kts 154°
2026-05-05 06:52 30.30380 31.56675 2094 ft 214 kts 158°
2026-05-05 06:52 30.28960 31.57243 2092 ft 215 kts 166°
2026-05-05 06:52 30.27534 31.57711 2088 ft 207 kts 166°
2026-05-05 06:53 30.26178 31.58179 2088 ft 203 kts 165°
2026-05-05 06:53 30.24854 31.58636 2084 ft 195 kts 166°
2026-05-05 06:53 30.23564 31.59084 2090 ft 192 kts 165°
2026-05-05 06:53 30.22277 31.59405 2068 ft 186 kts 186°
2026-05-05 06:54 30.21067 31.58989 2225 ft 182 kts 207°
2026-05-05 06:54 30.19906 31.58376 2021 ft 179 kts 207°
2026-05-05 06:54 30.18771 31.57821 2160 ft 182 kts 205°
2026-05-05 06:54 30.17729 31.57130 2362 ft 170 kts 233°
2026-05-05 06:55 30.17278 31.55895 2435 ft 169 kts 267°
2026-05-05 06:55 30.17074 31.54608 2154 ft 164 kts 251°
2026-05-05 06:55 30.16415 31.53520 1556 ft 169 kts 218°
2026-05-05 06:55 30.15412 31.52791 930 ft 169 kts 213°
2026-05-05 06:56 30.14626 31.52125 411 ft 0 kts 233°